owner,sensor,date,latitude,longitude,vertical_datum,mass_concentration_of_oxygen_in_sea_water,qcFlag 
SCCF RECON,ioos:station:SCCF:51:1,2009-05-01T00:00:00Z,26.5545,-82.1715,1.96,7.31,1111122 
SCCF RECON,ioos:station:SCCF:51:1,2009-05-01T01:00:00Z,26.5545,-82.1715,1.86,7.15,1111122 
SCCF RECON,ioos:station:SCCF:51:1,2009-05-01T02:00:00Z,26.5545,-82.1715,1.76,7.14,1111122 
SCCF RECON,ioos:station:SCCF:51:1,2009-05-01T03:00:00Z,26.5545,-82.1715,1.65,7.08,1111122 
SCCF RECON,ioos:station:SCCF:51:1,2009-05-01T04:00:00Z,26.5545,-82.1715,1.555,6.87,1111122 
SCCF RECON,ioos:station:SCCF:51:1,2009-05-01T05:00:00Z,26.5545,-82.1715,1.468,7.15,1111122 
SCCF RECON,ioos:station:SCCF:51:1,2009-05-01T06:00:00Z,26.5545,-82.1715,1.416,7.29,1111122 
SCCF RECON,ioos:station:SCCF:51:1,2009-05-01T07:00:00Z,26.5545,-82.1715,1.444,7.07,1111122 
SCCF RECON,ioos:station:SCCF:51:1,2009-05-01T08:00:00Z,26.5545,-82.1715,1.521,6.81,1111122 
SCCF RECON,ioos:station:SCCF:51:1,2009-05-01T09:00:00Z,26.5545,-82.1715,1.621,6.63,1111122 
SCCF RECON,ioos:station:SCCF:51:1,2009-05-01T10:00:00Z,26.5545,-82.1715,1.706,6.65,1111122 
SCCF RECON,ioos:station:SCCF:51:1,2009-05-01T11:00:00Z,26.5545,-82.1715,1.793,6.43,1111122 
SCCF RECON,ioos:station:SCCF:51:1,2009-05-01T12:00:00Z,26.5545,-82.1715,1.859,6.63,1111122 
SCCF RECON,ioos:station:SCCF:51:1,2009-05-01T13:00:00Z,26.5545,-82.1715,1.899,6.64,1111122 
SCCF RECON,ioos:station:SCCF:51:1,2009-05-01T14:00:00Z,26.5545,-82.1715,1.909,6.63,1111122 
SCCF RECON,ioos:station:SCCF:51:1,2009-05-01T15:00:00Z,26.5545,-82.1715,1.892,6.79,1111122 
SCCF RECON,ioos:station:SCCF:51:1,2009-05-01T16:00:00Z,26.5545,-82.1715,1.866,6.93,1111122 
SCCF RECON,ioos:station:SCCF:51:1,2009-05-01T17:00:00Z,26.5545,-82.1715,1.841,7.27,1111122 
SCCF RECON,ioos:station:SCCF:51:1,2009-05-01T18:00:00Z,26.5545,-82.1715,1.865,7.34,1111122 
SCCF RECON,ioos:station:SCCF:51:1,2009-05-01T19:00:00Z,26.5545,-82.1715,1.91,7.2,1111122 
SCCF RECON,ioos:station:SCCF:51:1,2009-05-01T20:00:00Z,26.5545,-82.1715,1.951,7.33,1111122 
SCCF RECON,ioos:station:SCCF:51:1,2009-05-01T21:00:00Z,26.5545,-82.1715,1.991,7.49,1111122 
SCCF RECON,ioos:station:SCCF:51:1,2009-05-01T22:00:00Z,26.5545,-82.1715,2.02,7.46,1111122 
SCCF RECON,ioos:station:SCCF:51:1,2009-05-01T23:00:00Z,26.5545,-82.1715,2.02,7.72,1111122 
SCCF RECON,ioos:station:SCCF:51:1,2009-05-02T00:00:00Z,26.5545,-82.1715,1.98,7.57,1111122 
SCCF RECON,ioos:station:SCCF:51:1,2009-05-02T01:00:00Z,26.5545,-82.1715,1.93,7.22,1111122 
SCCF RECON,ioos:station:SCCF:51:1,2009-05-02T02:00:00Z,26.5545,-82.1715,1.85,7.23,1111122 
SCCF RECON,ioos:station:SCCF:51:1,2009-05-02T03:00:00Z,26.5545,-82.1715,1.755,7.22,1111122 
SCCF RECON,ioos:station:SCCF:51:1,2009-05-02T04:00:00Z,26.5545,-82.1715,1.64,7.28,1111122 
SCCF RECON,ioos:station:SCCF:51:1,2009-05-02T05:00:00Z,26.5545,-82.1715,1.54,7.22,1111122 
SCCF RECON,ioos:station:SCCF:51:1,2009-05-02T06:00:00Z,26.5545,-82.1715,1.45,7.12,1111122 
SCCF RECON,ioos:station:SCCF:51:1,2009-05-02T07:00:00Z,26.5545,-82.1715,1.41,7.06,1111122 
SCCF RECON,ioos:station:SCCF:51:1,2009-05-02T08:00:00Z,26.5545,-82.1715,1.45,6.96,1111122 
SCCF RECON,ioos:station:SCCF:51:1,2009-05-02T09:00:00Z,26.5545,-82.1715,1.528,6.91,1111122 
SCCF RECON,ioos:station:SCCF:51:1,2009-05-02T10:00:00Z,26.5545,-82.1715,1.631,6.55,1111122 
SCCF RECON,ioos:station:SCCF:51:1,2009-05-02T11:00:00Z,26.5545,-82.1715,1.726,6.69,1111122 
SCCF RECON,ioos:station:SCCF:51:1,2009-05-02T12:00:00Z,26.5545,-82.1715,1.804,6.44,1111122 
SCCF RECON,ioos:station:SCCF:51:1,2009-05-02T13:00:00Z,26.5545,-82.1715,1.859,6.67,1111122 
SCCF RECON,ioos:station:SCCF:51:1,2009-05-02T14:00:00Z,26.5545,-82.1715,1.882,6.73,1111122 
SCCF RECON,ioos:station:SCCF:51:1,2009-05-02T15:00:00Z,26.5545,-82.1715,1.872,6.62,1111122 
SCCF RECON,ioos:station:SCCF:51:1,2009-05-02T16:00:00Z,26.5545,-82.1715,1.828,6.77,1111122 
SCCF RECON,ioos:station:SCCF:51:1,2009-05-02T17:00:00Z,26.5545,-82.1715,1.776,7.0,1111122 
SCCF RECON,ioos:station:SCCF:51:1,2009-05-02T18:00:00Z,26.5545,-82.1715,1.732,7.37,1111122 
SCCF RECON,ioos:station:SCCF:51:1,2009-05-02T19:00:00Z,26.5545,-82.1715,1.724,7.33,1111122 
SCCF RECON,ioos:station:SCCF:51:1,2009-05-02T20:00:00Z,26.5545,-82.1715,1.755,7.45,1111122 
SCCF RECON,ioos:station:SCCF:51:1,2009-05-02T21:00:00Z,26.5545,-82.1715,1.805,7.42,1111122 
SCCF RECON,ioos:station:SCCF:51:1,2009-05-02T22:00:00Z,26.5545,-82.1715,1.854,7.39,1111122 
SCCF RECON,ioos:station:SCCF:51:1,2009-05-02T23:00:00Z,26.5545,-82.1715,1.92,7.56,1111122 
SCCF RECON,ioos:station:SCCF:51:1,2009-05-03T00:00:00Z,26.5545,-82.1715,1.949,7.45,1111122 
SCCF RECON,ioos:station:SCCF:51:1,2009-05-03T01:00:00Z,26.5545,-82.1715,1.941,7.44,1111122 
SCCF RECON,ioos:station:SCCF:51:1,2009-05-03T02:00:00Z,26.5545,-82.1715,1.901,7.28,1111122 
SCCF RECON,ioos:station:SCCF:51:1,2009-05-03T03:00:00Z,26.5545,-82.1715,1.85,7.13,1111122 
SCCF RECON,ioos:station:SCCF:51:1,2009-05-03T04:00:00Z,26.5545,-82.1715,1.78,7.1,1111122 
SCCF RECON,ioos:station:SCCF:51:1,2009-05-03T05:00:00Z,26.5545,-82.1715,1.695,7.12,1111122 
SCCF RECON,ioos:station:SCCF:51:1,2009-05-03T06:00:00Z,26.5545,-82.1715,1.615,7.05,1111122 
SCCF RECON,ioos:station:SCCF:51:1,2009-05-03T07:00:00Z,26.5545,-82.1715,1.544,6.81,1111122 
SCCF RECON,ioos:station:SCCF:51:1,2009-05-03T08:00:00Z,26.5545,-82.1715,1.505,6.75,1111122 
SCCF RECON,ioos:station:SCCF:51:1,2009-05-03T09:00:00Z,26.5545,-82.1715,1.55,6.7,1111122 
SCCF RECON,ioos:station:SCCF:51:1,2009-05-03T10:00:00Z,26.5545,-82.1715,1.644,6.68,1111122 
SCCF RECON,ioos:station:SCCF:51:1,2009-05-03T11:00:00Z,26.5545,-82.1715,1.766,6.32,1111122 
SCCF RECON,ioos:station:SCCF:51:1,2009-05-03T12:00:00Z,26.5545,-82.1715,1.867,6.16,1111122 
SCCF RECON,ioos:station:SCCF:51:1,2009-05-03T13:00:00Z,26.5545,-82.1715,1.945,6.47,1111122 
SCCF RECON,ioos:station:SCCF:51:1,2009-05-03T14:00:00Z,26.5545,-82.1715,2.0,6.66,1111122 
SCCF RECON,ioos:station:SCCF:51:1,2009-05-03T15:00:00Z,26.5545,-82.1715,2.002,6.41,1111122 
SCCF RECON,ioos:station:SCCF:51:1,2009-05-03T16:00:00Z,26.5545,-82.1715,1.961,6.7,1111122 
SCCF RECON,ioos:station:SCCF:51:1,2009-05-03T17:00:00Z,26.5545,-82.1715,1.887,6.87,1111122 
SCCF RECON,ioos:station:SCCF:51:1,2009-05-03T18:00:00Z,26.5545,-82.1715,1.817,7.09,1111122 
SCCF RECON,ioos:station:SCCF:51:1,2009-05-03T19:00:00Z,26.5545,-82.1715,1.729,7.37,1111122 
SCCF RECON,ioos:station:SCCF:51:1,2009-05-03T20:00:00Z,26.5545,-82.1715,1.682,7.47,1111122 
SCCF RECON,ioos:station:SCCF:51:1,2009-05-03T21:00:00Z,26.5545,-82.1715,1.712,7.62,1111122 
SCCF RECON,ioos:station:SCCF:51:1,2009-05-03T22:00:00Z,26.5545,-82.1715,1.779,7.1,1111122 
SCCF RECON,ioos:station:SCCF:51:1,2009-05-03T23:00:00Z,26.5545,-82.1715,1.86,7.21,1111122 
SCCF RECON,ioos:station:SCCF:51:1,2009-05-04T00:00:00Z,26.5545,-82.1715,1.944,6.82,1111122 
SCCF RECON,ioos:station:SCCF:51:1,2009-05-04T01:00:00Z,26.5545,-82.1715,1.989,6.69,1111122 
SCCF RECON,ioos:station:SCCF:51:1,2009-05-04T02:00:00Z,26.5545,-82.1715,1.98,6.77,1111122 
SCCF RECON,ioos:station:SCCF:51:1,2009-05-04T03:00:00Z,26.5545,-82.1715,1.932,6.87,1111122 
SCCF RECON,ioos:station:SCCF:51:1,2009-05-04T04:00:00Z,26.5545,-82.1715,1.882,6.75,1111122 
SCCF RECON,ioos:station:SCCF:51:1,2009-05-04T05:00:00Z,26.5545,-82.1715,1.809,6.73,1111122 
SCCF RECON,ioos:station:SCCF:51:1,2009-05-04T06:00:00Z,26.5545,-82.1715,1.716,6.75,1111122 
SCCF RECON,ioos:station:SCCF:51:1,2009-05-04T07:00:00Z,26.5545,-82.1715,1.625,6.65,1111122 
SCCF RECON,ioos:station:SCCF:51:1,2009-05-04T08:00:00Z,26.5545,-82.1715,1.55,6.48,1111122 
SCCF RECON,ioos:station:SCCF:51:1,2009-05-04T09:00:00Z,26.5545,-82.1715,1.519,6.34,1111122 
SCCF RECON,ioos:station:SCCF:51:1,2009-05-04T10:00:00Z,26.5545,-82.1715,1.579,6.4,1111122 
SCCF RECON,ioos:station:SCCF:51:1,2009-05-04T11:00:00Z,26.5545,-82.1715,1.671,6.4,1111122 
SCCF RECON,ioos:station:SCCF:51:1,2009-05-04T12:00:00Z,26.5545,-82.1715,1.782,5.96,1111122 
SCCF RECON,ioos:station:SCCF:51:1,2009-05-04T13:00:00Z,26.5545,-82.1715,1.878,6.01,1111122 
SCCF RECON,ioos:station:SCCF:51:1,2009-05-04T14:00:00Z,26.5545,-82.1715,1.951,6.11,1111122 
SCCF RECON,ioos:station:SCCF:51:1,2009-05-04T15:00:00Z,26.5545,-82.1715,1.99,6.42,1111122 
SCCF RECON,ioos:station:SCCF:51:1,2009-05-04T16:00:00Z,26.5545,-82.1715,1.967,6.4,1111122 
SCCF RECON,ioos:station:SCCF:51:1,2009-05-04T17:00:00Z,26.5545,-82.1715,1.903,6.59,1111122 
SCCF RECON,ioos:station:SCCF:51:1,2009-05-04T18:00:00Z,26.5545,-82.1715,1.815,6.79,1111122 
SCCF RECON,ioos:station:SCCF:51:1,2009-05-04T19:00:00Z,26.5545,-82.1715,1.71,6.95,1111122 
SCCF RECON,ioos:station:SCCF:51:1,2009-05-04T20:00:00Z,26.5545,-82.1715,1.61,6.86,1111122 
SCCF RECON,ioos:station:SCCF:51:1,2009-05-04T21:00:00Z,26.5545,-82.1715,1.56,6.82,1111122 
SCCF RECON,ioos:station:SCCF:51:1,2009-05-04T22:00:00Z,26.5545,-82.1715,1.589,6.71,1111122 
SCCF RECON,ioos:station:SCCF:51:1,2009-05-04T23:00:00Z,26.5545,-82.1715,1.642,7.17,1111122 
SCCF RECON,ioos:station:SCCF:51:1,2009-05-05T00:00:00Z,26.5545,-82.1715,1.72,7.27,1111122 
SCCF RECON,ioos:station:SCCF:51:1,2009-05-05T01:00:00Z,26.5545,-82.1715,1.81,6.95,1111122 
SCCF RECON,ioos:station:SCCF:51:1,2009-05-05T02:00:00Z,26.5545,-82.1715,1.87,6.87,1111122 
SCCF RECON,ioos:station:SCCF:51:1,2009-05-05T03:00:00Z,26.5545,-82.1715,1.9,6.71,1111122 
SCCF RECON,ioos:station:SCCF:51:1,2009-05-05T04:00:00Z,26.5545,-82.1715,1.901,6.69,1111122 
SCCF RECON,ioos:station:SCCF:51:1,2009-05-05T05:00:00Z,26.5545,-82.1715,1.86,7.02,1111122 
SCCF RECON,ioos:station:SCCF:51:1,2009-05-05T06:00:00Z,26.5545,-82.1715,1.79,6.71,1111122 
SCCF RECON,ioos:station:SCCF:51:1,2009-05-05T07:00:00Z,26.5545,-82.1715,1.73,6.29,1111122 
SCCF RECON,ioos:station:SCCF:51:1,2009-05-05T08:00:00Z,26.5545,-82.1715,1.646,6.23,1111122 
SCCF RECON,ioos:station:SCCF:51:1,2009-05-05T09:00:00Z,26.5545,-82.1715,1.585,6.23,1111122 
SCCF RECON,ioos:station:SCCF:51:1,2009-05-05T10:00:00Z,26.5545,-82.1715,1.579,6.24,1111122 
SCCF RECON,ioos:station:SCCF:51:1,2009-05-05T11:00:00Z,26.5545,-82.1715,1.642,6.03,1111122 
SCCF RECON,ioos:station:SCCF:51:1,2009-05-05T12:00:00Z,26.5545,-82.1715,1.749,5.95,1111122 
SCCF RECON,ioos:station:SCCF:51:1,2009-05-05T13:00:00Z,26.5545,-82.1715,1.86,6.22,1111122 
SCCF RECON,ioos:station:SCCF:51:1,2009-05-05T14:00:00Z,26.5545,-82.1715,1.966,5.98,1111122 
SCCF RECON,ioos:station:SCCF:51:1,2009-05-05T15:00:00Z,26.5545,-82.1715,2.03,6.48,1111122 
SCCF RECON,ioos:station:SCCF:51:1,2009-05-05T16:00:00Z,26.5545,-82.1715,2.034,6.87,1111122 
SCCF RECON,ioos:station:SCCF:51:1,2009-05-05T17:00:00Z,26.5545,-82.1715,1.965,6.75,1111122 
SCCF RECON,ioos:station:SCCF:51:1,2009-05-05T18:00:00Z,26.5545,-82.1715,1.86,6.72,1111122 
SCCF RECON,ioos:station:SCCF:51:1,2009-05-05T19:00:00Z,26.5545,-82.1715,1.737,6.76,1111122 
SCCF RECON,ioos:station:SCCF:51:1,2009-05-05T20:00:00Z,26.5545,-82.1715,1.62,7.11,1111122 
SCCF RECON,ioos:station:SCCF:51:1,2009-05-05T21:00:00Z,26.5545,-82.1715,1.524,7.33,1111122 
SCCF RECON,ioos:station:SCCF:51:1,2009-05-05T22:00:00Z,26.5545,-82.1715,1.476,7.42,1111122 
SCCF RECON,ioos:station:SCCF:51:1,2009-05-05T23:00:00Z,26.5545,-82.1715,1.514,7.3,1111122 
SCCF RECON,ioos:station:SCCF:51:1,2009-05-06T00:00:00Z,26.5545,-82.1715,1.59,6.94,1111122 
SCCF RECON,ioos:station:SCCF:51:1,2009-05-06T01:00:00Z,26.5545,-82.1715,1.69,7.34,1111122 
SCCF RECON,ioos:station:SCCF:51:1,2009-05-06T02:00:00Z,26.5545,-82.1715,1.8,7.16,1111122 
SCCF RECON,ioos:station:SCCF:51:1,2009-05-06T03:00:00Z,26.5545,-82.1715,1.89,7.25,1111122 
SCCF RECON,ioos:station:SCCF:51:1,2009-05-06T04:00:00Z,26.5545,-82.1715,1.94,6.81,1111122 
SCCF RECON,ioos:station:SCCF:51:1,2009-05-06T05:00:00Z,26.5545,-82.1715,1.92,7.06,1111122 
SCCF RECON,ioos:station:SCCF:51:1,2009-05-06T06:00:00Z,26.5545,-82.1715,1.87,6.86,1111122 
SCCF RECON,ioos:station:SCCF:51:1,2009-05-06T07:00:00Z,26.5545,-82.1715,1.773,6.45,1111122 
SCCF RECON,ioos:station:SCCF:51:1,2009-05-06T08:00:00Z,26.5545,-82.1715,1.68,6.54,1111122 
SCCF RECON,ioos:station:SCCF:51:1,2009-05-06T09:00:00Z,26.5545,-82.1715,1.61,6.63,1111122 
SCCF RECON,ioos:station:SCCF:51:1,2009-05-06T10:00:00Z,26.5545,-82.1715,1.595,6.5,1111122 
SCCF RECON,ioos:station:SCCF:51:1,2009-05-06T11:00:00Z,26.5545,-82.1715,1.634,6.51,1111122 
SCCF RECON,ioos:station:SCCF:51:1,2009-05-06T12:00:00Z,26.5545,-82.1715,1.707,6.17,1111122 
SCCF RECON,ioos:station:SCCF:51:1,2009-05-06T13:00:00Z,26.5545,-82.1715,1.81,6.02,1111122 
SCCF RECON,ioos:station:SCCF:51:1,2009-05-06T14:00:00Z,26.5545,-82.1715,1.921,6.38,1111122 
SCCF RECON,ioos:station:SCCF:51:1,2009-05-06T15:00:00Z,26.5545,-82.1715,2.003,6.21,1111122 
SCCF RECON,ioos:station:SCCF:51:1,2009-05-06T16:00:00Z,26.5545,-82.1715,2.025,6.67,1111122 
SCCF RECON,ioos:station:SCCF:51:1,2009-05-06T17:00:00Z,26.5545,-82.1715,1.972,6.88,1111122 
SCCF RECON,ioos:station:SCCF:51:1,2009-05-06T18:00:00Z,26.5545,-82.1715,1.888,6.92,1111122 
SCCF RECON,ioos:station:SCCF:51:1,2009-05-06T19:00:00Z,26.5545,-82.1715,1.772,7.23,1111122 
SCCF RECON,ioos:station:SCCF:51:1,2009-05-06T20:00:00Z,26.5545,-82.1715,1.642,7.66,1111122 
SCCF RECON,ioos:station:SCCF:51:1,2009-05-06T21:00:00Z,26.5545,-82.1715,1.52,8.03,1111122 
SCCF RECON,ioos:station:SCCF:51:1,2009-05-06T22:00:00Z,26.5545,-82.1715,1.448,8.01,1111122 
SCCF RECON,ioos:station:SCCF:51:1,2009-05-06T23:00:00Z,26.5545,-82.1715,1.39,8.01,1111122 
SCCF RECON,ioos:station:SCCF:51:1,2009-05-07T00:00:00Z,26.5545,-82.1715,1.43,7.91,1111122 
SCCF RECON,ioos:station:SCCF:51:1,2009-05-07T01:00:00Z,26.5545,-82.1715,1.53,7.48,1111122 
SCCF RECON,ioos:station:SCCF:51:1,2009-05-07T02:00:00Z,26.5545,-82.1715,1.66,7.23,1111122 
SCCF RECON,ioos:station:SCCF:51:1,2009-05-07T03:00:00Z,26.5545,-82.1715,1.78,7.12,1111122 
SCCF RECON,ioos:station:SCCF:51:1,2009-05-07T04:00:00Z,26.5545,-82.1715,1.87,7.14,1111122 
SCCF RECON,ioos:station:SCCF:51:1,2009-05-07T05:00:00Z,26.5545,-82.1715,1.91,6.94,1111122 
SCCF RECON,ioos:station:SCCF:51:1,2009-05-07T06:00:00Z,26.5545,-82.1715,1.88,6.89,1111122 
SCCF RECON,ioos:station:SCCF:51:1,2009-05-07T07:00:00Z,26.5545,-82.1715,1.815,6.81,1111122 
SCCF RECON,ioos:station:SCCF:51:1,2009-05-07T08:00:00Z,26.5545,-82.1715,1.74,6.84,1111122 
SCCF RECON,ioos:station:SCCF:51:1,2009-05-07T09:00:00Z,26.5545,-82.1715,1.67,6.76,1111122 
SCCF RECON,ioos:station:SCCF:51:1,2009-05-07T10:00:00Z,26.5545,-82.1715,1.63,6.79,1111122 
SCCF RECON,ioos:station:SCCF:51:1,2009-05-07T11:00:00Z,26.5545,-82.1715,1.641,6.7,1111122 
SCCF RECON,ioos:station:SCCF:51:1,2009-05-07T12:00:00Z,26.5545,-82.1715,1.703,6.53,1111122 
SCCF RECON,ioos:station:SCCF:51:1,2009-05-07T13:00:00Z,26.5545,-82.1715,1.799,6.47,1111122 
SCCF RECON,ioos:station:SCCF:51:1,2009-05-07T14:00:00Z,26.5545,-82.1715,1.9,6.32,1111122 
SCCF RECON,ioos:station:SCCF:51:1,2009-05-07T15:00:00Z,26.5545,-82.1715,1.991,6.58,1111122 
SCCF RECON,ioos:station:SCCF:51:1,2009-05-07T16:00:00Z,26.5545,-82.1715,2.021,6.72,1111122 
SCCF RECON,ioos:station:SCCF:51:1,2009-05-07T17:00:00Z,26.5545,-82.1715,1.977,6.92,1111122 
SCCF RECON,ioos:station:SCCF:51:1,2009-05-07T18:00:00Z,26.5545,-82.1715,1.899,7.28,1111122 
SCCF RECON,ioos:station:SCCF:51:1,2009-05-07T19:00:00Z,26.5545,-82.1715,1.79,7.68,1111122 
SCCF RECON,ioos:station:SCCF:51:1,2009-05-07T20:00:00Z,26.5545,-82.1715,1.66,8.02,1111122 
SCCF RECON,ioos:station:SCCF:51:1,2009-05-07T21:00:00Z,26.5545,-82.1715,1.531,8.0,1111122 
SCCF RECON,ioos:station:SCCF:51:1,2009-05-07T22:00:00Z,26.5545,-82.1715,1.416,7.99,1111122 
SCCF RECON,ioos:station:SCCF:51:1,2009-05-07T23:00:00Z,26.5545,-82.1715,1.327,7.98,1111122 
SCCF RECON,ioos:station:SCCF:51:1,2009-05-08T00:00:00Z,26.5545,-82.1715,1.288,7.98,1111122 
SCCF RECON,ioos:station:SCCF:51:1,2009-05-08T01:00:00Z,26.5545,-82.1715,1.359,7.71,1111122 
SCCF RECON,ioos:station:SCCF:51:1,2009-05-08T02:00:00Z,26.5545,-82.1715,1.463,7.15,1111122 
SCCF RECON,ioos:station:SCCF:51:1,2009-05-08T03:00:00Z,26.5545,-82.1715,1.59,7.37,1111122 
SCCF RECON,ioos:station:SCCF:51:1,2009-05-08T04:00:00Z,26.5545,-82.1715,1.706,7.43,1111122 
SCCF RECON,ioos:station:SCCF:51:1,2009-05-08T05:00:00Z,26.5545,-82.1715,1.79,6.92,1111122 
SCCF RECON,ioos:station:SCCF:51:1,2009-05-08T06:00:00Z,26.5545,-82.1715,1.84,6.76,1111122 
SCCF RECON,ioos:station:SCCF:51:1,2009-05-08T07:00:00Z,26.5545,-82.1715,1.816,6.84,1111122 
SCCF RECON,ioos:station:SCCF:51:1,2009-05-08T08:00:00Z,26.5545,-82.1715,1.75,6.77,1111122 
SCCF RECON,ioos:station:SCCF:51:1,2009-05-08T09:00:00Z,26.5545,-82.1715,1.7,6.73,1111122 
SCCF RECON,ioos:station:SCCF:51:1,2009-05-08T10:00:00Z,26.5545,-82.1715,1.67,6.53,1111122 
SCCF RECON,ioos:station:SCCF:51:1,2009-05-08T11:00:00Z,26.5545,-82.1715,1.67,6.12,1111122 
SCCF RECON,ioos:station:SCCF:51:1,2009-05-08T12:00:00Z,26.5545,-82.1715,1.72,6.64,1111122 
SCCF RECON,ioos:station:SCCF:51:1,2009-05-08T13:00:00Z,26.5545,-82.1715,1.774,6.5,1111122 
SCCF RECON,ioos:station:SCCF:51:1,2009-05-08T14:00:00Z,26.5545,-82.1715,1.865,6.14,1111122 
SCCF RECON,ioos:station:SCCF:51:1,2009-05-08T15:00:00Z,26.5545,-82.1715,1.98,6.64,1111122 
SCCF RECON,ioos:station:SCCF:51:1,2009-05-08T16:00:00Z,26.5545,-82.1715,2.066,6.88,1111122 
SCCF RECON,ioos:station:SCCF:51:1,2009-05-08T17:00:00Z,26.5545,-82.1715,2.079,6.98,1111122 
SCCF RECON,ioos:station:SCCF:51:1,2009-05-08T18:00:00Z,26.5545,-82.1715,2.021,7.21,1111122 
SCCF RECON,ioos:station:SCCF:51:1,2009-05-08T19:00:00Z,26.5545,-82.1715,1.916,7.35,1111122 
SCCF RECON,ioos:station:SCCF:51:1,2009-05-08T20:00:00Z,26.5545,-82.1715,1.783,7.43,1111122 
SCCF RECON,ioos:station:SCCF:51:1,2009-05-08T21:00:00Z,26.5545,-82.1715,1.645,7.45,1111122 
SCCF RECON,ioos:station:SCCF:51:1,2009-05-08T22:00:00Z,26.5545,-82.1715,1.52,7.94,1111122 
SCCF RECON,ioos:station:SCCF:51:1,2009-05-08T23:00:00Z,26.5545,-82.1715,1.414,7.93,1111122 
SCCF RECON,ioos:station:SCCF:51:1,2009-05-09T00:00:00Z,26.5545,-82.1715,1.331,7.94,1111122 
SCCF RECON,ioos:station:SCCF:51:1,2009-05-09T01:00:00Z,26.5545,-82.1715,1.33,7.94,1111122 
SCCF RECON,ioos:station:SCCF:51:1,2009-05-09T02:00:00Z,26.5545,-82.1715,1.425,7.57,1111122 
SCCF RECON,ioos:station:SCCF:51:1,2009-05-09T03:00:00Z,26.5545,-82.1715,1.532,6.74,1111122 
SCCF RECON,ioos:station:SCCF:51:1,2009-05-09T04:00:00Z,26.5545,-82.1715,1.66,7.16,1111122 
SCCF RECON,ioos:station:SCCF:51:1,2009-05-09T05:00:00Z,26.5545,-82.1715,1.772,7.11,1111122 
SCCF RECON,ioos:station:SCCF:51:1,2009-05-09T06:00:00Z,26.5545,-82.1715,1.84,6.81,1111122 
SCCF RECON,ioos:station:SCCF:51:1,2009-05-09T07:00:00Z,26.5545,-82.1715,1.86,6.58,1111122 
SCCF RECON,ioos:station:SCCF:51:1,2009-05-09T08:00:00Z,26.5545,-82.1715,1.84,6.59,1111122 
SCCF RECON,ioos:station:SCCF:51:1,2009-05-09T09:00:00Z,26.5545,-82.1715,1.79,6.42,1111122 
SCCF RECON,ioos:station:SCCF:51:1,2009-05-09T10:00:00Z,26.5545,-82.1715,1.77,6.3,1111122 
SCCF RECON,ioos:station:SCCF:51:1,2009-05-09T11:00:00Z,26.5545,-82.1715,1.78,6.08,1111122 
SCCF RECON,ioos:station:SCCF:51:1,2009-05-09T12:00:00Z,26.5545,-82.1715,1.81,6.24,1111122 
SCCF RECON,ioos:station:SCCF:51:1,2009-05-09T13:00:00Z,26.5545,-82.1715,1.861,6.41,1111122 
SCCF RECON,ioos:station:SCCF:51:1,2009-05-09T14:00:00Z,26.5545,-82.1715,1.94,6.36,1111122 
SCCF RECON,ioos:station:SCCF:51:1,2009-05-09T15:00:00Z,26.5545,-82.1715,2.029,6.38,1111122 
SCCF RECON,ioos:station:SCCF:51:1,2009-05-09T16:00:00Z,26.5545,-82.1715,2.121,6.71,1111122 
SCCF RECON,ioos:station:SCCF:51:1,2009-05-09T17:00:00Z,26.5545,-82.1715,2.14,6.73,1111122 
SCCF RECON,ioos:station:SCCF:51:1,2009-05-09T18:00:00Z,26.5545,-82.1715,2.09,7.14,1111122 
SCCF RECON,ioos:station:SCCF:51:1,2009-05-09T19:00:00Z,26.5545,-82.1715,1.993,7.29,1111122 
SCCF RECON,ioos:station:SCCF:51:1,2009-05-09T20:00:00Z,26.5545,-82.1715,1.869,7.14,1111122 
SCCF RECON,ioos:station:SCCF:51:1,2009-05-09T21:00:00Z,26.5545,-82.1715,1.729,7.38,1111122 
SCCF RECON,ioos:station:SCCF:51:1,2009-05-09T22:00:00Z,26.5545,-82.1715,1.593,7.5,1111122 
SCCF RECON,ioos:station:SCCF:51:1,2009-05-09T23:00:00Z,26.5545,-82.1715,1.468,7.88,1111122 
SCCF RECON,ioos:station:SCCF:51:1,2009-05-10T00:00:00Z,26.5545,-82.1715,1.36,7.88,1111122 
SCCF RECON,ioos:station:SCCF:51:1,2009-05-10T01:00:00Z,26.5545,-82.1715,1.287,7.88,1111122 
SCCF RECON,ioos:station:SCCF:51:1,2009-05-10T02:00:00Z,26.5545,-82.1715,1.307,7.8,1111122 
SCCF RECON,ioos:station:SCCF:51:1,2009-05-10T03:00:00Z,26.5545,-82.1715,1.4,7.29,1111122 
SCCF RECON,ioos:station:SCCF:51:1,2009-05-10T04:00:00Z,26.5545,-82.1715,1.527,6.28,1111122 
SCCF RECON,ioos:station:SCCF:51:1,2009-05-10T05:00:00Z,26.5545,-82.1715,1.641,6.71,1111122 
SCCF RECON,ioos:station:SCCF:51:1,2009-05-10T06:00:00Z,26.5545,-82.1715,1.74,6.75,1111122 
SCCF RECON,ioos:station:SCCF:51:1,2009-05-10T07:00:00Z,26.5545,-82.1715,1.8,6.42,1111122 
SCCF RECON,ioos:station:SCCF:51:1,2009-05-10T08:00:00Z,26.5545,-82.1715,1.801,6.33,1111122 
SCCF RECON,ioos:station:SCCF:51:1,2009-05-10T09:00:00Z,26.5545,-82.1715,1.762,6.18,1111122 
SCCF RECON,ioos:station:SCCF:51:1,2009-05-10T10:00:00Z,26.5545,-82.1715,1.731,5.92,1111122 
SCCF RECON,ioos:station:SCCF:51:1,2009-05-10T11:00:00Z,26.5545,-82.1715,1.714,5.71,1111122 
SCCF RECON,ioos:station:SCCF:51:1,2009-05-10T12:00:00Z,26.5545,-82.1715,1.713,5.72,1111122 
SCCF RECON,ioos:station:SCCF:51:1,2009-05-10T13:00:00Z,26.5545,-82.1715,1.752,5.93,1111122 
SCCF RECON,ioos:station:SCCF:51:1,2009-05-10T14:00:00Z,26.5545,-82.1715,1.811,6.13,1111122 
SCCF RECON,ioos:station:SCCF:51:1,2009-05-10T15:00:00Z,26.5545,-82.1715,1.89,6.0,1111122 
SCCF RECON,ioos:station:SCCF:51:1,2009-05-10T16:00:00Z,26.5545,-82.1715,1.983,6.47,1111122 
SCCF RECON,ioos:station:SCCF:51:1,2009-05-10T17:00:00Z,26.5545,-82.1715,2.053,6.61,1111122 
SCCF RECON,ioos:station:SCCF:51:1,2009-05-10T18:00:00Z,26.5545,-82.1715,2.055,6.78,1111122 
SCCF RECON,ioos:station:SCCF:51:1,2009-05-10T19:00:00Z,26.5545,-82.1715,1.988,6.89,1111122 
SCCF RECON,ioos:station:SCCF:51:1,2009-05-10T20:00:00Z,26.5545,-82.1715,1.896,7.32,1111122 
SCCF RECON,ioos:station:SCCF:51:1,2009-05-10T21:00:00Z,26.5545,-82.1715,1.771,6.93,1111122 
SCCF RECON,ioos:station:SCCF:51:1,2009-05-10T22:00:00Z,26.5545,-82.1715,1.635,6.89,1111122 
SCCF RECON,ioos:station:SCCF:51:1,2009-05-10T23:00:00Z,26.5545,-82.1715,1.508,6.72,1111122 
SCCF RECON,ioos:station:SCCF:51:1,2009-05-11T00:00:00Z,26.5545,-82.1715,1.399,6.63,1111122 
SCCF RECON,ioos:station:SCCF:51:1,2009-05-11T01:00:00Z,26.5545,-82.1715,1.315,6.6,1111122 
SCCF RECON,ioos:station:SCCF:51:1,2009-05-11T02:00:00Z,26.5545,-82.1715,1.282,6.52,1111122 
SCCF RECON,ioos:station:SCCF:51:1,2009-05-11T03:00:00Z,26.5545,-82.1715,1.355,5.95,1111122 
SCCF RECON,ioos:station:SCCF:51:1,2009-05-11T04:00:00Z,26.5545,-82.1715,1.451,5.88,1111122 
SCCF RECON,ioos:station:SCCF:51:1,2009-05-11T05:00:00Z,26.5545,-82.1715,1.56,5.82,1111122 
SCCF RECON,ioos:station:SCCF:51:1,2009-05-11T06:00:00Z,26.5545,-82.1715,1.666,6.12,1111122 
SCCF RECON,ioos:station:SCCF:51:1,2009-05-11T07:00:00Z,26.5545,-82.1715,1.74,5.86,1111122 
SCCF RECON,ioos:station:SCCF:51:1,2009-05-11T08:00:00Z,26.5545,-82.1715,1.787,5.55,1111122 
SCCF RECON,ioos:station:SCCF:51:1,2009-05-11T09:00:00Z,26.5545,-82.1715,1.784,5.55,1111122 
SCCF RECON,ioos:station:SCCF:51:1,2009-05-11T10:00:00Z,26.5545,-82.1715,1.745,5.52,1111122 
SCCF RECON,ioos:station:SCCF:51:1,2009-05-11T11:00:00Z,26.5545,-82.1715,1.709,5.46,1111122 
SCCF RECON,ioos:station:SCCF:51:1,2009-05-11T12:00:00Z,26.5545,-82.1715,1.7,5.11,1111122 
SCCF RECON,ioos:station:SCCF:51:1,2009-05-11T13:00:00Z,26.5545,-82.1715,1.742,5.5,1111122 
SCCF RECON,ioos:station:SCCF:51:1,2009-05-11T14:00:00Z,26.5545,-82.1715,1.796,5.67,1111122 
SCCF RECON,ioos:station:SCCF:51:1,2009-05-11T15:00:00Z,26.5545,-82.1715,1.88,5.79,1111122 
SCCF RECON,ioos:station:SCCF:51:1,2009-05-11T16:00:00Z,26.5545,-82.1715,1.978,6.13,1111122 
SCCF RECON,ioos:station:SCCF:51:1,2009-05-11T17:00:00Z,26.5545,-82.1715,2.042,6.62,1111122 
SCCF RECON,ioos:station:SCCF:51:1,2009-05-11T18:00:00Z,26.5545,-82.1715,2.065,6.67,1111122 
SCCF RECON,ioos:station:SCCF:51:1,2009-05-11T19:00:00Z,26.5545,-82.1715,2.02,6.92,1111122 
SCCF RECON,ioos:station:SCCF:51:1,2009-05-11T20:00:00Z,26.5545,-82.1715,1.922,6.74,1111122 